Location: Unspecified
(0.0000°N, 0.0000°E)
Time: 09:05:30
(UTC+00:00)

Courier 1B Rocket - Pass Details

Date: 27 May 2026
Orbit: 920 x 1201 km, 28.2° (Epoch: 9 June)

Event Time Altitude Azimuth Distance (km) Brightness Sun altitude
Rises 01:01:07 0° 265° (W) 4,039 - -63.6°
Reaches altitude 10° 01:04:31 10° 277° (W) 3,041 - -63.1°
Maximum altitude 01:10:36 27° 332° (NNW) 1,992 - -62.2°
Drops below altitude 10° 01:16:23 10° 27° (NNE) 2,872 - -61.2°
Exits shadow 01:19:20 - 39° (NE) 3,723 8.5 -60.8°
Sets 01:19:31 0° 39° (NE) 3,775 8.5 -60.7°
